Regional Weather Roundup
Issued by NWS Charleston, WV

Home | Current Version | Previous Version | Graphics & Text | Print | Product List | Glossary On
Versions: 1 2 3 4 5 6 7 8 9 10 11 12 13 14 15 16 17 18 19 20 21 22 23 24 25 26 27 28 29 30 31 32 33 34 35 36 37 38 39 40 41 42 43 44 45 46 47 48 49 50
000
ASUS41 KRLX 041310
RWRRLX
West Virginia Regional Weather Roundup
National Weather Service Charleston WV
800 AM EST WED MAR 04 2015

Note: "fair" indicates few or no clouds below 12,000 feet with no
significant weather and/or obstructions to visibility.

WVZ003-041400-
Northern Panhandle of West Virginia

CITY           SKY/WX    TMP DP  RH WIND       PRES   REMARKS
WHEELING       LGT RAIN  34  32  92 SW5       29.89S VSB 1/4
$$

WVZ009-041400-
Northwest West Virginia

CITY           SKY/WX    TMP DP  RH WIND       PRES   REMARKS
PARKERSBURG    RAIN      38  36  92 CALM      29.97R FOG
$$

WVZ006-041400-
Western West Virginia

CITY           SKY/WX    TMP DP  RH WIND       PRES   REMARKS
HUNTINGTON     LGT RAIN  44  43  96 N3        29.91F VSB 1
$$

WVZ015-041400-
West Central West Virginia

CITY           SKY/WX    TMP DP  RH WIND       PRES   REMARKS
CHARLESTON     LGT RAIN  47  45  93 CALM      29.93S VSB 1
$$

WVZ022-031-041400-
North Central West Virginia

CITY           SKY/WX    TMP DP  RH WIND       PRES   REMARKS
CLARKSBURG     LGT RAIN  42  42 100 S6        29.92S FOG
MORGANTOWN     LGT RAIN  41  38  89 SW5       29.92S FOG
$$

WVZ025-035-042-045-041400-
Southern West Virginia

CITY           SKY/WX    TMP DP  RH WIND       PRES   REMARKS
BECKLEY        RAIN      45  44  97 NW10      29.94R VSB 3/4
LOGAN          LGT RAIN  48  48 100 CALM      29.92R
BLUEFIELD      LGT RAIN  51  47  86 N6        29.92R VSB 1
LEWISBURG      DRZL/FOG  42  41  96 W3        29.93R VSB 1/2
$$

WVZ047-041400-
Northern Mountains of West Virginia

CITY           SKY/WX    TMP DP  RH WIND       PRES   REMARKS
ELKINS         LGT RAIN  46  32  58 VRB5      29.95R
$$

WVZ052-041400-
Eastern Panhandle of West Virginia

CITY           SKY/WX    TMP DP  RH WIND       PRES   REMARKS
MARTINSBURG    CLOUDY    38  34  85 CALM      29.91R FOG
PETERSBURG     PTSUNNY   43  43 100 CALM      29.92R
$$



USA.gov is the U.S. government's official web portal to all federal, state and local government web resources and services.